Wind_Speed
60 57 53 51 50 51 51 50 51 53 54 55 55 53 51 50 50 52 54 55 55 54 53 52 52 52 52 53 53 55 57 58 58 53 49 50 52 54 56 57 57 57 56 55 54 54 54 54 54 53 53 53 53 53 53 53 52 51 50 49 48 48 47 46 46 46 44 43 44 44 44 44 43 42 42 43 43 44 45 46 45 44 43 43 42 41
62 57 53 54 55 55 54 53 53 53 52 53 54 54 52 50 50 51 53 54 55 55 55 53 52 50 50 49 48 49 53 56 58 57 54 50 46 47 52 54 54 55 55 55 56 56 56 55 54 54 54 54 54 54 54 53 53 52 51 50 50 49 48 47 47 48 47 47 48 48 47 46 46 46 46 45 45 44 44 45 45 44 43 43 43 43
62 58 57 58 58 57 55 53 53 52 52 52 53 53 53 53 52 51 52 53 55 56 56 54 51 49 48 45 43 45 50 54 56 56 55 54 49 45 46 48 49 51 53 55 56 57 57 56 55 55 55 55 55 55 54 54 53 53 52 52 51 50 50 49 48 49 49 49 49 49 48 48 47 47 47 46 45 44 43 42 42 42 41 42 43 44
63 61 61 62 61 59 56 55 53 52 51 51 51 52 54 56 54 53 52 52 54 55 56 54 49 47 44 41 40 42 46 48 52 53 52 53 52 49 50 50 50 50 50 53 55 57 57 57 56 56 56 56 55 55 55 54 54 54 53 53 52 51 51 50 50 50 51 51 52 51 50 49 47 45 44 44 42 42 41 41 42 42 41 42 43 45
64 64 66 66 64 61 59 57 55 53 52 51 51 52 55 57 56 54 52 51 52 54 55 52 47 45 42 40 39 40 42 45 48 51 51 51 50 50 52 54 56 56 53 53 54 55 56 56 57 57 57 56 56 55 55 55 55 55 54 54 53 52 52 52 52 52 51 52 51 50 47 44 42 41 41 40 40 42 44 44 45 46 46 45 45 48
63 65 68 68 66 64 61 59 57 55 53 52 52 53 55 57 57 55 53 50 51 52 53 50 46 44 42 41 41 40 41 43 47 51 51 51 52 53 50 48 54 61 62 61 58 56 56 56 57 58 57 57 56 56 56 56 55 55 55 55 54 54 53 53 53 52 51 50 48 46 43 39 39 40 41 42 44 47 49 49 50 51 51 51 52 53
62 65 68 69 68 66 63 61 59 56 55 53 53 55 56 55 56 56 54 51 50 51 50 47 45 43 42 42 41 42 41 41 45 48 47 47 50 55 53 45 49 58 61 61 62 60 58 57 57 58 57 57 57 57 57 56 56 55 55 55 55 54 54 53 53 53 52 51 49 48 47 45 44 45 46 47 49 51 53 54 54 55 57 58 58 57
59 64 67 69 68 67 64 62 60 58 56 55 56 57 55 54 55 56 55 52 51 50 47 45 43 42 42 43 42 42 42 41 43 45 45 47 50 54 54 49 50 58 58 57 58 59 58 58 58 58 58 58 58 58 58 57 56 56 55 55 55 54 54 53 53 53 52 52 51 51 50 49 49 50 51 51 52 54 56 56 56 58 60 61 61 60
57 61 65 67 67 66 64 64 64 62 60 60 61 59 56 55 55 55 54 53 52 49 45 43 42 42 43 44 43 42 42 42 43 44 47 50 54 57 57 57 58 63 64 64 63 61 59 58 58 58 58 58 57 57 58 57 57 56 55 55 54 54 53 53 53 53 53 53 52 52 51 51 51 52 53 55 56 57 58 58 58 58 60 62 62 62
58 60 63 65 65 65 66 68 67 65 64 65 64 60 57 55 53 52 52 53 53 48 43 42 41 41 43 44 43 43 43 44 45 48 51 52 54 57 60 64 65 61 58 59 62 61 58 58 59 58 58 58 57 57 56 56 56 56 55 55 55 54 54 54 53 53 53 53 53 52 52 51 52 52 54 56 58 59 60 61 61 61 62 63 64 64
59 61 63 62 62 65 69 71 70 68 69 68 65 61 59 56 52 50 49 51 51 46 43 42 41 40 42 43 43 44 46 49 50 51 53 54 54 57 62 69 71 66 58 56 58 57 55 56 57 57 58 58 58 58 56 56 56 56 56 56 56 55 55 54 54 54 54 54 53 53 52 52 53 54 55 56 57 59 61 62 64 65 65 65 65 65
57 60 61 61 61 64 68 70 71 72 71 68 65 62 59 55 51 48 46 47 46 44 45 44 42 41 42 43 45 47 50 52 53 52 53 55 58 61 65 68 69 69 65 61 58 54 52 53 53 54 54 55 56 56 56 56 55 55 55 54 54 55 55 55 55 55 55 55 55 55 55 55 55 55 56 56 57 60 62 64 66 67 67 66 65 64
55 56 58 59 60 62 64 67 70 72 70 67 65 62 58 54 50 45 43 42 42 45 49 47 43 41 42 45 47 50 53 54 53 53 54 55 57 61 63 63 61 60 60 57 54 51 50 50 50 50 50 51 52 52 53 53 53 54 53 52 52 53 54 55 55 55 55 56 57 57 57 57 57 57 58 58 60 62 64 66 67 68 68 66 64 62
52 53 55 57 59 60 60 62 65 66 66 65 64 62 59 54 49 44 41 40 41 47 51 48 43 41 42 45 48 50 53 55 54 54 55 54 54 55 55 54 53 52 51 50 47 46 46 46 46 47 47 47 48 49 49 49 49 50 51 51 52 52 52 53 54 54 56 57 58 58 58 58 58 58 59 60 62 64 66 68 69 68 67 64 62 60
50 50 51 53 55 56 57 58 60 62 63 64 64 64 61 56 52 48 44 42 43 48 50 47 42 40 41 44 47 50 52 53 53 53 53 52 51 51 51 50 50 49 47 46 44 44 43 44 44 45 44 44 45 45 45 45 45 46 48 50 51 51 51 51 52 54 55 56 57 58 58 59 59 59 60 62 64 66 68 68 67 65 62 59 57 56
49 49 50 53 55 55 56 57 59 61 63 64 66 65 61 57 55 52 49 46 46 48 49 45 41 39 42 45 47 49 50 50 50 51 50 49 48 48 49 49 48 46 45 44 43 43 43 43 43 43 43 42 42 42 42 42 43 43 44 46 46 46 46 48 49 51 52 53 55 56 57 58 59 60 61 63 64 64 64 62 60 58 56 54 52 51
48 49 52 54 56 57 57 58 58 59 61 63 63 61 60 60 58 55 52 49 48 48 47 44 41 40 42 44 45 46 47 47 47 47 47 47 47 47 46 45 46 45 43 43 42 42 42 42 42 42 42 41 40 40 40 40 41 41 42 42 41 40 41 43 44 45 47 48 50 52 54 55 57 58 58 58 58 58 57 55 54 52 50 48 47 46
49 49 52 55 57 59 60 60 60 60 60 60 59 59 62 63 60 56 54 51 48 47 46 43 41 41 41 41 42 43 45 46 46 45 44 45 47 46 41 39 42 44 42 41 40 41 41 40 41 41 41 40 39 39 38 38 38 39 40 40 39 39 39 40 40 41 43 44 46 48 50 51 51 52 52 51 51 51 51 49 48 47 45 45 45 45
51 51 52 55 58 62 63 63 63 61 59 58 59 61 63 61 57 55 53 51 48 47 45 43 41 40 39 39 41 42 43 45 45 45 45 46 47 47 43 41 42 41 40 40 40 40 40 38 37 37 38 38 38 37 38 38 39 39 39 38 38 38 39 39 40 40 41 42 43 45 46 46 47 46 46 46 46 46 46 46 45 45 45 45 45 44
52 53 53 55 59 63 64 64 62 59 58 59 60 60 60 58 56 55 53 51 49 47 45 44 41 39 39 40 42 42 43 44 45 45 46 46 46 46 46 46 44 40 38 39 39 39 39 37 35 35 37 37 37 37 37 38 40 40 39 38 38 38 39 39 39 40 40 41 41 42 43 43 43 43 43 43 44 44 45 45 46 45 45 45 44 44
53 54 54 56 58 60 60 59 59 58 58 58 57 57 57 56 56 56 54 52 50 48 46 44 41 40 41 43 44 44 43 43 44 44 43 42 42 42 42 43 43 41 40 39 39 38 39 39 38 37 38 38 37 37 37 38 40 40 39 38 38 38 38 38 38 39 39 39 40 40 40 41 41 41 42 43 44 44 45 46 46 46 46 45 45 45
52 54 55 56 57 56 54 57 60 62 61 59 57 57 56 56 55 55 53 51 49 48 47 46 43 43 44 45 46 46 45 44 43 42 41 39 39 38 40 40 39 40 41 40 40 39 39 39 38 38 40 39 38 38 38 40 41 40 39 38 37 38 38 38 38 38 39 39 39 40 40 40 40 41 42 43 44 45 46 47 47 47 47 47 47 46
53 54 54 54 55 55 56 60 63 64 64 63 62 61 60 58 56 54 52 51 50 49 48 47 46 46 46 46 46 46 45 44 43 41 40 39 38 38 39 39 39 41 42 41 40 39 39 37 36 39 41 40 39 39 39 40 40 39 38 37 38 38 38 38 38 39 39 39 39 39 40 41 41 42 43 44 45 46 47 48 49 49 48 48 47 47
54 54 53 53 53 55 58 62 65 66 67 66 64 62 60 58 56 55 55 56 55 52 50 49 48 47 47 46 46 45 44 43 42 41 40 39 39 39 39 39 40 42 43 42 40 39 38 37 37 39 40 39 39 39 40 40 39 38 38 38 39 39 39 39 39 39 39 39 40 41 42 42 43 44 45 46 47 48 49 49 49 49 48 47 46 46
54 54 54 54 54 56 58 62 66 67 66 65 63 60 59 58 58 59 59 59 57 53 51 50 50 49 48 47 46 45 44 43 42 42 41 41 40 40 40 41 41 42 43 42 40 38 37 37 38 38 38 39 39 39 40 40 39 39 39 40 40 40 40 40 40 40 40 41 42 43 44 45 46 46 47 47 48 48 48 48 47 47 46 45 44 44
55 55 54 54 55 56 56 59 62 63 63 62 62 60 59 59 59 59 59 58 55 53 52 51 50 49 47 47 46 46 45 44 43 43 42 42 42 42 42 42 42 42 42 41 40 39 38 38 38 37 38 39 39 39 40 40 40 40 40 40 41 40 40 41 41 42 42 43 44 45 45 46 47 46 47 47 47 47 47 46 45 44 44 43 43 43
54 55 55 55 56 56 56 57 60 62 64 64 62 61 60 59 58 58 57 56 55 54 53 52 51 50 49 48 47 47 46 45 45 44 44 43 43 43 43 43 43 42 42 41 41 40 39 39 38 38 40 40 39 39 40 40 40 41 41 41 42 41 41 42 42 43 43 43 44 45 46 46 46 46 47 47 47 47 46 45 45 44 44 43 44 44
52 53 54 55 57 58 58 59 62 64 65 65 64 63 61 59 58 57 55 54 54 54 53 53 53 53 52 51 50 49 49 48 47 46 45 45 44 44 44 43 43 42 42 42 42 42 41 41 40 40 42 42 41 40 41 42 42 42 42 43 43 42 42 42 42 42 43 43 45 46 47 47 48 48 48 49 49 48 47 46 46 46 46 46 46 46
51 53 54 56 57 58 59 61 62 63 64 65 64 64 62 61 58 56 55 55 54 54 54 54 53 53 54 53 52 51 50 49 49 47 46 45 45 44 44 44 44 43 43 44 45 44 43 42 41 43 44 44 44 44 43 44 44 44 44 44 43 43 43 42 42 43 44 45 47 48 49 50 50 50 51 50 50 49 48 48 48 48 48 49 48 48
52 54 55 55 57 58 59 61 63 63 64 65 65 64 63 62 60 58 57 56 55 54 54 53 52 53 54 53 52 51 50 48 48 47 46 45 45 45 44 45 45 45 45 46 46 46 45 44 44 44 45 46 46 45 45 46 46 45 45 44 44 44 44 43 44 45 46 48 49 50 50 51 51 52 52 51 50 50 49 49 49 50 50 50 50 50
52 54 55 55 55 57 59 61 63 63 64 65 65 64 63 62 61 59 58 57 55 54 53 53 52 52 53 53 53 51 50 49 48 48 48 47 47 47 46 46 46 46 47 48 48 47 46 46 45 45 45 46 46 46 48 49 49 48 46 45 45 45 45 45 46 47 49 50 51 52 52 52 52 52 52 51 51 50 50 50 50 51 51 52 52 52
52 53 53 53 54 56 59 61 63 63 64 65 65 65 64 62 61 59 57 55 54 54 53 53 53 53 53 54 54 53 52 51 51 50 50 50 50 49 48 48 47 47 47 49 49 49 49 48 47 47 46 46 46 47 50 53 52 49 48 47 47 47 47 48 49 50 52 53 53 54 53 53 53 53 53 52 51 51 51 51 51 52 53 53 54 55
51 51 51 52 53 55 57 60 63 63 63 64 65 64 63 61 59 58 57 55 54 54 54 54 55 55 55 55 55 55 55 54 54 54 53 53 52 51 50 49 48 47 49 50 51 51 51 51 51 50 49 48 47 49 53 56 54 50 49 49 50 51 52 52 53 53 54 55 55 55 55 55 54 55 54 53 52 52 52 52 52 53 54 55 56 56
50 49 48 49 51 53 56 60 61 61 61 62 62 62 61 60 58 57 56 55 54 54 54 54 55 55 55 55 56 56 56 57 57 56 55 54 53 52 50 49 49 50 51 52 53 53 53 53 53 52 51 50 51 53 57 59 57 54 52 53 54 55 55 55 55 56 57 57 57 57 56 56 56 56 55 54 53 53 52 53 53 54 55 56 56 56
48 48 47 48 51 53 55 58 59 59 60 60 60 60 60 58 57 56 56 54 53 52 53 53 53 53 53 54 54 56 57 57 56 56 55 54 53 52 51 51 51 52 53 54 55 55 55 54 54 53 52 52 54 56 59 59 58 57 56 56 57 58 58 58 58 58 58 59 58 58 57 57 56 56 55 54 53 53 53 53 54 54 55 56 56 55
46 47 47 48 50 51 53 55 56 57 59 59 59 58 58 57 56 55 54 52 51 51 51 51 52 52 52 52 52 54 55 55 55 56 55 54 54 53 53 53 53 54 56 57 57 56 56 55 54 54 54 54 55 57 58 59 59 59 58 59 60 60 60 59 59 60 60 59 59 59 58 57 57 56 56 54 53 53 53 54 54 55 56 56 55 55
45 46 47 48 48 49 51 54 56 57 58 57 57 56 56 56 55 54 53 52 50 50 50 51 52 52 51 51 51 51 52 53 53 54 54 54 55 55 55 55 56 57 59 60 59 57 56 56 55 55 55 56 57 58 58 59 60 61 61 61 62 62 61 60 60 60 60 59 59 59 58 57 57 56 55 54 53 54 54 54 55 55 56 56 55 55
43 44 45 47 47 49 51 53 54 54 54 54 55 56 55 55 55 54 53 52 50 50 50 51 52 51 51 51 50 50 50 50 51 52 53 54 55 56 56 57 58 60 61 60 59 57 57 57 57 57 58 59 60 60 60 61 63 63 63 63 63 62 62 61 61 60 59 59 59 59 58 57 56 55 54 53 53 53 53 54 55 56 56 56 56 57
42 43 45 46 46 48 49 49 49 50 52 53 54 54 55 55 54 53 52 50 49 49 50 50 51 51 51 51 50 50 49 49 50 51 51 52 53 54 55 56 57 58 58 58 58 57 57 57 58 58 60 60 61 61 61 63 65 66 65 65 64 64 63 62 61 60 60 59 59 58 58 56 55 54 53 53 53 53 54 55 56 56 56 57 58 58
42 43 44 44 44 45 47 48 48 49 51 53 53 53 54 55 54 53 51 49 49 50 50 50 51 51 51 51 51 50 49 50 51 51 50 50 51 51 51 52 54 55 56 56 55 55 55 54 55 56 57 58 60 61 62 64 66 67 66 65 64 63 62 61 60 60 58 57 57 56 55 54 52 52 52 52 53 54 55 57 57 58 57 57 57 57
42 42 43 43 44 45 46 48 49 51 52 53 54 55 56 56 54 51 50 50 50 51 51 51 51 52 52 52 51 51 51 51 51 50 49 48 48 48 50 52 53 53 53 52 52 53 52 51 51 51 51 53 57 59 60 63 65 65 63 61 60 59 58 57 57 56 55 54 54 53 52 51 51 51 52 53 54 55 57 58 58 58 58 57 57 57
42 43 44 45 46 47 48 50 52 53 54 55 56 56 56 54 52 50 50 51 52 51 51 51 51 52 52 51 51 51 51 51 50 49 47 47 48 49 50 51 52 52 51 51 52 52 51 49 49 48 49 53 56 58 60 61 63 62 60 58 58 57 56 55 54 53 53 53 52 52 51 51 51 52 53 54 56 57 58 59 59 58 57 56 57 57
41 43 45 46 47 48 49 50 51 52 53 55 55 54 52 51 50 50 50 51 51 51 50 50 50 50 50 50 50 50 50 50 48 47 47 48 49 50 50 50 51 50 50 49 49 48 46 45 44 46 49 52 53 55 57 59 60 59 58 58 58 57 55 54 54 53 53 52 52 52 52 52 52 53 54 56 57 58 58 58 57 57 56 56 56 57
40 41 42 44 45 46 46 47 49 51 54 55 54 53 52 51 50 50 50 50 50 49 48 48 48 49 49 49 50 50 49 48 47 47 47 48 49 49 48 48 47 46 45 44 43 42 41 41 42 46 49 50 50 53 56 57 58 58 58 59 59 57 55 55 54 53 52 52 52 52 52 52 53 55 56 57 57 58 57 57 56 56 56 57 57 58
39 40 42 43 44 46 47 48 50 52 54 53 52 51 51 50 50 50 50 49 49 48 47 47 47 48 48 49 49 48 47 46 46 47 48 48 47 46 45 44 43 42 42 42 41 41 42 42 43 47 49 49 49 52 55 56 57 57 58 60 60 57 55 54 53 52 52 51 52 52 52 53 54 55 56 57 57 56 56 56 56 57 57 57 58 58
38 39 40 42 44 45 47 49 50 51 51 51 50 49 48 48 48 48 48 48 47 47 47 47 47 47 47 47 47 46 45 45 45 46 46 46 45 44 43 43 43 43 43 43 43 43 43 43 43 45 46 47 48 50 52 55 57 57 57 58 57 55 53 52 52 51 51 51 52 52 53 54 54 55 56 56 56 56 55 56 56 57 57 58 58 59
37 37 38 39 41 43 45 47 49 49 49 49 48 48 47 47 47 47 47 47 47 47 46 46 47 47 46 46 46 45 44 44 44 44 44 44 44 43 43 44 45 45 45 44 44 44 44 44 43 43 44 45 47 48 50 53 55 55 55 55 54 53 52 51 51 51 51 52 53 53 53 54 54 54 55 55 55 55 56 56 57 57 58 58 59 58
36 37 37 38 40 41 43 45 46 46 46 46 46 46 47 47 47 47 47 47 46 46 46 46 46 46 46 45 45 43 43 43 43 43 44 45 44 44 44 45 46 46 46 46 46 45 45 44 44 43 44 45 46 47 48 50 52 52 53 53 52 52 51 51 51 51 52 52 53 53 53 53 54 54 55 54 55 55 56 57 57 58 58 59 59 58
36 37 37 38 39 41 43 44 44 43 43 44 44 45 46 46 46 46 46 46 46 46 46 46 46 46 45 44 43 43 43 43 43 44 45 45 45 45 46 47 47 47 47 47 47 46 45 44 43 43 44 45 45 46 47 49 50 51 52 52 52 52 51 51 51 52 52 52 52 53 54 54 54 54 54 54 55 55 56 57 57 58 59 59 59 58
36 36 37 38 39 40 41 41 40 40 41 42 42 43 44 44 45 45 45 45 45 45 45 45 45 45 45 44 44 44 44 44 45 46 46 45 46 47 47 48 49 49 49 48 48 46 45 43 42 43 44 44 45 46 48 49 50 50 51 51 52 52 51 51 52 52 52 53 54 54 54 53 53 52 53 53 55 56 56 57 58 59 60 60 59 59
35 36 37 38 39 39 40 40 40 41 41 42 42 43 44 45 45 45 45 45 45 45 45 45 45 45 46 46 45 45 45 45 46 47 48 48 48 48 49 49 49 49 50 49 48 46 44 42 42 42 42 41 41 42 44 46 47 48 49 49 50 50 51 51 52 53 53 54 53 52 51 50 50 51 52 53 55 56 57 58 59 60 60 59 59 59
Wind_Direction
228 228 229 231 230 228 226 224 225 226 226 226 227 227 228 228 228 228 229 231 233 234 232 231 232 233 234 234 233 232 232 233 234 233 235 245 252 251 251 251 250 250 250 250 249 249 249 249 250 251 253 254 255 257 258 260 262 263 263 264 265 266 266 267 268 269 268 267 267 272 277 281 282 283 285 288 288 287 287 286 285 286 286 287 289 293
226 226 227 228 228 227 225 224 225 226 226 227 227 227 228 229 229 229 229 230 232 233 233 232 231 232 234 235 235 235 234 234 234 232 230 236 249 256 254 253 253 252 252 252 251 250 250 250 250 251 252 254 255 257 258 260 261 262 263 264 265 266 266 267 267 268 270 271 272 275 278 279 281 281 283 287 288 286 285 284 284 284 285 287 290 292
225 225 226 227 227 227 226 226 227 227 226 226 227 227 227 228 228 228 228 229 231 233 234 233 231 230 232 233 234 234 235 235 235 234 231 231 239 253 257 256 255 256 254 253 252 252 251 251 251 252 252 253 255 256 258 259 261 262 263 264 265 265 266 267 267 268 270 273 274 276 278 279 281 282 283 286 288 285 282 281 282 284 286 289 291 293
223 222 224 226 226 226 225 226 227 228 227 227 227 227 227 227 227 227 228 228 230 232 234 235 233 231 232 232 233 233 235 236 236 236 235 232 235 246 256 259 259 259 257 254 253 252 252 252 252 253 253 254 255 256 258 259 261 262 263 263 264 265 266 267 267 268 270 273 274 276 277 279 281 283 284 285 285 282 280 281 283 286 290 293 294 295
221 221 223 224 224 224 224 225 225 226 227 227 226 226 226 226 226 226 227 227 229 231 233 235 234 233 232 231 231 231 233 234 236 236 234 232 231 238 252 262 261 258 255 252 252 252 252 252 253 253 254 255 256 257 258 259 260 262 263 264 265 266 267 268 269 269 271 273 275 277 278 278 278 279 279 278 279 280 282 284 285 287 290 293 296 298
220 221 222 223 223 223 222 223 225 225 226 226 226 226 226 226 225 225 226 227 228 230 232 233 233 232 231 230 229 229 230 231 232 233 232 229 228 229 238 254 261 258 255 253 252 253 253 253 254 254 255 256 257 257 258 259 261 262 264 265 266 267 267 268 269 270 271 272 273 274 273 271 270 270 271 272 276 280 284 286 287 288 289 292 297 300
220 221 222 223 223 223 222 222 224 224 225 226 227 228 227 226 225 224 224 225 227 229 231 232 232 231 231 231 230 229 229 229 230 232 231 228 227 227 228 240 257 260 256 253 252 253 254 255 256 256 257 257 258 258 259 260 261 263 264 265 266 267 267 268 268 269 269 270 270 270 270 267 265 265 266 269 275 277 281 285 286 288 291 294 299 302
221 221 222 222 222 222 222 223 224 224 224 225 227 228 228 227 226 224 223 224 226 228 230 230 230 230 231 231 230 230 229 229 229 229 229 227 226 227 225 229 248 258 258 255 254 253 253 255 256 257 258 258 259 260 260 261 262 263 264 265 266 266 267 267 268 268 268 268 268 268 269 267 265 265 265 267 272 275 278 282 283 285 289 295 299 302
221 222 223 222 222 221 221 223 224 223 223 224 226 226 226 227 226 225 223 223 225 228 229 230 230 229 229 230 230 230 229 229 229 226 226 227 228 228 226 227 237 250 256 255 255 255 254 256 257 258 259 259 259 260 260 260 261 262 263 264 265 265 266 267 267 268 268 268 268 268 269 268 267 267 268 268 270 273 276 280 283 285 289 293 297 300
219 220 222 222 220 220 219 221 222 222 223 224 225 225 225 226 226 226 224 224 226 228 229 230 230 229 229 229 229 229 229 228 227 225 223 224 226 227 228 228 230 238 248 252 253 254 254 256 258 259 259 258 259 260 260 260 260 261 262 263 264 265 265 266 267 267 268 269 269 269 269 270 270 270 271 270 269 271 274 279 283 288 291 294 296 298
220 220 221 221 220 220 220 220 220 221 223 224 224 225 225 225 225 225 225 225 225 226 228 229 229 228 228 228 228 228 227 226 225 225 223 221 223 225 228 230 231 234 241 246 249 252 254 256 257 258 257 257 257 259 260 260 261 261 262 263 264 265 265 266 266 266 267 268 269 269 269 270 271 271 270 269 268 271 274 278 283 288 291 294 296 297
223 222 222 221 221 222 222 222 222 222 223 224 225 226 226 226 226 225 226 226 225 224 226 227 227 226 226 226 226 225 226 227 226 226 226 224 223 225 228 230 232 234 239 244 249 253 254 256 258 257 257 257 257 258 259 260 261 261 262 263 264 264 264 264 265 265 266 267 267 268 268 269 270 271 270 268 268 271 274 277 282 287 291 293 295 295
224 224 223 222 222 223 224 224 225 225 226 226 226 227 228 228 228 227 228 228 224 223 226 226 225 225 224 224 224 224 225 227 227 227 228 228 228 230 232 234 236 239 243 247 251 253 253 255 257 257 257 257 257 257 258 258 259 260 260 262 263 263 264 264 264 265 265 265 266 267 268 269 270 270 270 268 268 270 274 279 284 288 291 292 293 294
225 225 224 224 224 224 225 226 227 228 228 228 229 229 228 228 227 227 227 227 223 223 225 224 223 224 224 224 225 225 226 227 228 228 229 231 232 235 238 241 243 245 247 249 250 250 251 253 255 255 255 256 256 256 257 257 257 258 258 259 260 261 262 263 264 264 264 264 265 267 268 270 270 270 269 268 269 271 276 281 285 288 289 290 291 292
224 225 225 226 226 227 226 226 227 227 226 226 227 227 227 226 225 224 223 223 221 222 223 222 221 223 224 224 225 225 226 228 229 230 232 233 235 237 240 242 243 244 245 247 248 249 249 251 252 254 254 254 255 256 257 258 258 257 256 257 257 259 262 264 264 263 263 263 264 266 267 269 270 270 270 271 273 276 279 282 285 286 287 289 290 291
220 221 223 224 226 227 226 226 226 226 226 225 225 225 225 225 224 222 221 220 220 221 221 218 218 221 221 222 223 224 226 228 229 231 232 234 235 237 239 241 242 244 244 245 246 248 248 249 251 252 253 254 255 257 257 258 259 258 258 258 260 262 264 265 265 265 265 266 266 267 268 269 270 272 273 275 277 279 281 282 284 286 287 289 291 293
221 219 219 221 223 224 225 225 225 226 226 226 226 226 225 224 223 221 221 220 220 221 219 215 216 219 220 220 221 223 224 226 228 229 232 233 234 235 238 243 245 244 244 244 244 245 246 248 250 251 253 254 255 256 257 259 260 261 260 262 264 267 267 268 268 269 270 270 271 271 272 272 273 274 276 277 279 280 281 283 285 287 289 291 293 294
220 221 220 220 222 223 224 224 223 223 224 224 225 225 225 223 221 221 221 221 221 221 218 213 214 217 218 219 221 222 224 225 225 226 229 231 233 232 233 241 245 242 240 241 241 242 244 245 248 250 252 254 254 255 257 259 261 262 262 265 268 269 270 269 270 270 270 271 272 272 273 273 274 275 277 278 279 281 283 285 287 289 291 292 293 294
216 219 220 221 222 223 223 224 224 223 223 222 222 223 224 223 221 222 222 222 222 222 217 213 213 215 216 217 218 220 221 223 223 224 225 227 229 229 225 228 237 239 238 238 240 242 243 244 246 248 250 252 253 254 255 258 260 262 264 266 268 268 268 268 268 268 269 270 271 271 272 273 275 276 278 279 281 283 285 287 289 290 291 292 293 293
216 217 219 221 222 223 223 223 224 224 224 224 223 224 225 222 220 220 220 220 221 220 217 213 212 214 214 215 216 217 219 222 223 224 225 227 229 230 227 227 233 238 238 237 238 240 241 243 245 248 249 251 253 254 254 256 258 261 263 265 266 266 266 267 268 269 270 271 272 273 274 276 277 279 280 281 283 285 286 288 289 290 291 292 293 295
218 218 219 221 223 224 224 224 225 225 226 225 224 226 227 224 222 221 220 219 219 218 216 213 212 213 214 215 216 216 217 220 223 225 227 229 231 232 232 231 234 238 239 237 237 238 240 242 244 247 248 249 251 253 253 254 256 258 260 262 264 265 266 268 269 270 272 273 274 276 278 279 281 282 283 284 285 286 287 288 289 290 292 293 294 296
221 221 221 222 224 224 223 224 225 224 224 224 223 223 224 224 223 222 221 221 221 220 217 214 213 214 215 217 218 217 216 218 221 224 226 228 230 232 233 233 235 239 241 239 237 239 241 242 245 248 249 250 251 252 254 255 256 257 259 261 263 265 266 268 270 272 274 275 276 278 280 282 283 284 284 285 285 286 287 288 290 291 293 294 295 296
221 222 223 224 225 224 221 222 223 223 222 222 221 221 220 219 219 219 218 219 220 220 219 216 215 216 217 218 220 220 219 219 220 223 225 227 229 231 234 234 235 239 243 242 240 240 242 244 245 248 251 252 253 254 255 256 258 259 260 262 264 265 267 269 271 273 274 275 277 280 281 282 283 284 285 285 286 287 288 290 292 293 295 296 296 296
221 222 222 223 225 225 224 222 222 222 221 221 221 221 221 219 218 216 215 216 216 216 216 216 216 218 218 219 221 222 222 221 221 223 225 227 229 231 234 236 235 237 242 243 242 242 244 246 246 248 251 253 254 255 256 257 259 260 262 263 264 266 268 271 272 273 275 277 279 281 282 282 283 284 286 287 288 289 291 293 294 295 296 297 297 297
222 223 222 222 223 224 225 224 224 222 222 222 222 222 222 220 219 217 215 215 215 213 214 215 217 219 220 220 221 223 223 222 222 223 225 227 229 231 233 236 237 239 242 245 245 246 246 248 249 250 251 251 252 253 255 257 259 260 262 263 265 267 270 272 273 274 276 278 280 282 282 283 284 285 286 287 289 291 292 294 295 296 297 297 297 298
222 222 222 222 223 224 225 226 227 226 224 223 223 223 222 221 220 220 218 216 215 214 214 215 217 220 222 222 223 224 225 225 225 225 226 227 229 231 232 235 237 240 243 246 247 248 248 249 250 251 252 252 251 252 255 257 258 260 262 264 266 268 270 272 273 275 277 279 280 282 283 284 284 285 286 288 289 291 292 294 296 297 298 298 299 299
223 223 222 221 222 222 222 224 225 225 224 223 223 223 223 223 222 221 220 219 217 216 215 215 217 219 222 224 225 225 225 226 227 227 227 228 229 231 233 235 238 240 243 246 247 249 249 250 250 251 253 254 254 254 255 257 259 261 263 264 267 269 270 272 274 276 278 279 281 283 284 285 284 285 287 288 289 290 291 293 295 296 298 299 299 299
227 226 225 223 222 222 221 221 222 222 222 222 221 222 223 223 223 222 221 221 220 218 217 217 217 219 221 223 225 225 226 226 227 228 228 229 230 231 233 236 238 240 243 246 247 248 249 250 250 251 252 254 255 256 257 259 260 261 263 265 267 268 270 272 274 276 278 280 282 284 285 285 285 286 287 288 289 289 290 291 294 296 297 298 298 298
228 227 226 225 224 223 221 221 221 221 221 221 220 220 221 222 222 221 221 221 220 220 219 219 219 220 223 224 225 226 227 228 229 229 230 231 232 233 235 236 238 239 241 243 245 247 248 249 250 252 254 255 256 258 259 260 261 262 263 265 266 268 269 271 274 277 279 280 282 284 284 285 285 286 288 289 289 289 290 292 294 295 296 296 296 296
228 227 226 224 224 223 222 221 220 220 220 221 221 220 220 220 220 220 220 221 220 220 220 220 220 222 224 226 227 228 229 231 232 233 233 234 235 235 236 236 237 238 240 242 244 246 248 249 250 252 254 256 258 259 261 262 262 263 264 266 267 267 268 271 274 277 279 280 281 283 284 284 285 286 287 288 288 289 291 292 293 294 295 295 294 294
227 227 225 223 222 222 222 221 220 219 219 219 220 220 220 220 220 220 219 220 220 220 221 221 222 223 226 228 229 230 231 232 233 235 235 236 236 237 237 238 238 239 240 242 244 246 248 250 251 252 254 256 259 262 263 263 264 264 265 266 267 267 269 272 276 278 279 280 281 282 283 283 284 285 286 287 288 289 291 292 293 293 294 294 295 295
225 225 224 222 220 220 220 220 220 219 218 218 218 219 220 220 220 220 220 220 220 221 221 222 222 224 226 228 230 231 232 233 234 235 236 237 237 237 238 238 239 240 242 243 244 246 248 250 251 252 254 258 262 265 265 264 264 265 266 267 267 269 271 274 276 277 279 280 281 281 282 282 283 284 285 286 288 289 290 291 292 293 294 295 295 295
222 222 221 220 218 218 218 219 219 219 218 218 218 219 220 220 220 220 220 221 221 221 221 222 223 223 225 227 229 231 232 234 235 235 236 237 237 238 238 239 241 242 243 244 245 247 249 250 252 253 255 258 261 262 263 264 265 267 268 268 269 271 273 275 276 277 278 279 280 281 281 282 282 283 284 285 286 288 290 291 292 293 295 295 296 295
220 217 216 216 215 215 216 217 218 218 218 218 219 219 220 221 221 221 222 222 222 223 223 223 224 225 225 226 228 230 232 233 235 236 237 238 239 240 241 242 243 244 245 246 247 248 250 251 252 254 255 257 258 259 261 265 267 269 269 269 270 271 272 274 275 276 277 278 279 280 280 281 281 281 282 284 286 287 289 291 292 293 294 295 295 295
217 213 210 211 212 212 213 215 215 216 217 218 218 219 220 221 222 223 223 224 224 225 225 225 226 227 228 228 229 232 233 234 236 238 239 240 241 243 244 244 245 246 248 249 249 250 251 252 254 255 257 258 259 260 263 266 268 269 269 269 269 270 271 272 274 275 277 278 279 279 280 280 280 280 281 283 285 287 289 290 292 293 295 295 295 294
214 210 207 208 210 209 211 212 213 214 216 217 217 218 220 222 223 224 225 226 227 227 228 228 228 230 230 231 232 234 235 237 238 240 241 242 244 245 246 246 247 249 250 251 251 252 253 254 256 257 258 259 260 261 264 266 268 268 268 268 268 269 270 272 274 275 277 278 279 279 279 279 279 279 281 283 285 287 288 290 291 293 294 294 294 293
211 208 206 206 207 207 209 210 211 213 214 215 217 218 220 221 223 225 226 227 227 228 228 228 229 230 231 233 234 235 237 238 240 242 243 244 245 246 248 248 249 251 252 252 253 254 255 257 258 259 260 261 262 263 264 266 266 266 266 266 267 269 270 272 273 275 276 277 278 278 278 278 278 279 281 283 285 287 288 289 291 293 293 292 292 292
208 207 206 205 204 205 207 209 210 211 212 214 216 218 220 221 223 224 226 227 228 228 228 229 230 230 231 233 234 235 237 238 240 242 243 245 246 247 248 249 250 251 253 255 255 256 257 258 259 261 261 262 263 263 264 264 264 264 264 265 267 268 270 271 272 274 275 276 277 277 276 276 277 279 281 283 285 286 287 289 291 292 291 291 290 291
205 205 206 205 204 204 206 207 208 210 212 214 215 217 219 222 223 225 227 228 229 230 230 230 231 232 232 234 235 236 237 239 240 241 242 244 246 247 248 250 252 253 255 256 257 257 258 259 260 261 261 262 262 262 262 262 262 263 264 265 266 268 269 270 272 273 274 275 275 275 275 276 278 280 282 283 284 285 286 288 290 291 290 289 289 290
204 204 205 205 204 205 205 204 205 208 211 213 215 217 219 221 223 224 226 229 230 231 231 231 232 233 233 234 235 237 238 239 241 242 242 244 246 248 250 252 253 254 255 257 258 258 258 259 260 261 262 263 262 262 261 261 261 262 264 265 267 268 269 271 272 273 273 273 273 274 275 277 279 280 282 282 283 284 286 287 289 289 289 289 290 292
203 203 203 203 203 204 205 204 204 206 210 213 214 216 218 220 221 223 225 227 229 230 231 231 232 233 234 235 236 237 238 239 241 243 244 246 248 250 251 252 254 255 256 258 259 259 259 259 259 260 261 262 262 261 261 262 264 265 267 268 268 269 270 271 272 272 272 272 272 274 276 278 279 280 281 281 282 284 286 287 288 288 288 289 292 294
203 201 201 201 201 202 203 204 204 206 209 212 214 216 217 219 221 223 225 227 229 230 230 231 233 234 235 236 237 239 240 241 243 245 246 248 250 250 252 253 255 256 258 259 259 260 260 260 259 258 257 258 259 262 263 265 268 270 271 271 271 271 271 271 271 271 271 271 273 275 276 277 278 279 279 280 282 284 285 286 287 287 289 291 293 295
205 203 201 201 202 202 203 205 206 208 211 214 216 217 219 220 222 224 227 229 231 232 232 233 234 236 236 238 239 240 241 243 244 246 247 249 250 251 253 255 257 258 259 260 260 260 260 259 258 256 255 256 259 262 265 266 268 270 271 271 270 271 271 270 270 271 271 272 273 274 276 277 277 278 279 280 282 284 285 286 286 288 290 292 294 295
207 205 203 203 203 203 204 206 207 210 213 215 216 217 219 220 221 224 227 229 232 234 234 235 237 238 238 239 240 241 243 244 246 247 249 250 251 253 255 257 258 258 258 258 258 259 259 259 258 257 257 258 260 262 263 265 267 269 269 269 269 269 270 270 271 272 272 273 274 274 275 276 276 277 279 281 282 283 284 285 287 289 291 292 293 295
208 206 204 203 202 203 204 206 208 211 214 216 217 219 220 222 223 225 228 230 232 234 234 235 236 238 239 240 241 243 244 246 247 248 250 250 252 253 254 254 255 255 255 256 257 258 259 259 258 259 260 261 262 262 263 265 266 266 266 268 269 270 270 271 272 272 272 273 273 274 274 275 277 278 280 281 282 283 284 286 287 289 291 292 294 296
208 207 206 205 204 204 205 207 209 212 214 216 218 220 221 224 226 228 230 232 233 234 234 235 236 237 238 240 241 243 245 246 247 248 250 251 251 251 252 253 254 255 256 257 258 259 259 259 259 260 261 262 261 260 260 260 261 263 264 266 269 270 270 270 271 270 271 271 272 273 275 276 277 279 280 280 281 283 284 286 288 289 291 293 295 297
206 206 206 206 206 207 208 210 212 213 215 216 218 219 221 223 225 227 229 230 232 233 234 235 235 237 238 240 241 242 243 245 246 248 249 251 251 253 254 255 256 257 257 258 258 259 259 260 260 260 260 260 259 258 258 258 259 261 262 263 265 267 267 268 268 269 270 272 273 274 275 276 278 278 279 280 281 283 285 287 288 290 292 294 296 297
205 204 204 205 206 208 210 212 214 215 216 217 218 220 221 222 224 225 227 229 230 232 233 234 235 236 237 239 240 241 243 245 247 249 251 252 253 255 255 256 257 257 258 258 259 259 259 259 260 260 259 258 259 260 260 259 259 260 260 261 262 264 265 267 268 270 271 272 273 274 275 276 278 279 280 281 282 284 285 287 289 292 294 296 297 297
205 205 205 206 206 208 211 213 215 216 217 218 220 221 222 224 225 227 228 230 231 232 234 235 237 237 238 240 241 243 245 247 249 250 252 254 255 256 256 257 258 258 259 259 260 260 260 259 259 259 258 258 259 261 261 260 260 260 260 260 262 263 265 267 269 270 271 272 273 274 276 277 278 279 279 280 282 284 286 289 291 294 295 297 298 298
209 209 209 210 210 212 214 216 218 220 221 222 223 225 226 227 228 230 231 232 234 235 236 238 239 241 241 242 243 244 246 247 249 250 251 253 253 254 256 257 259 260 260 261 261 260 260 259 259 259 259 259 261 262 261 260 259 259 260 261 262 264 265 267 268 270 271 272 273 274 276 276 277 277 279 281 283 286 288 290 293 295 296 297 298 298
212 213 213 214 214 216 217 219 221 222 224 225 226 228 229 230 231 232 233 234 236 237 238 239 241 242 243 244 244 245 246 247 248 249 250 250 252 253 255 256 258 259 260 260 261 260 259 258 258 258 259 261 262 262 261 260 259 259 260 261 262 263 265 266 267 269 270 271 272 273 274 275 276 278 280 283 285 287 290 292 294 296 296 296 296 296
Height
10585 10591 10598 10603 10606 10607 10609 10613 10613 10614 10620 10625 10629 10633 10636 10640 10644 10647 10649 10651 10654 10658 10664 10669 10674 10678 10683 10688 10693 10698 10701 10703 10706 10712 10716 10714 10714 10715 10716 10718 10721 10724 10727 10729 10731 10733 10734 10735 10737 10739 10741 10742 10742 10743 10743 10744 10745 10746 10747 10748 10749 10750 10751 10752 10751 10751 10751 10750 10750 10750 10750 10749 10749 10748 10748 10749 10749 10749 10749 10748 10747 10746 10744 10742 10741 10740
10580 10588 10594 10595 10595 10597 10602 10606 10607 10611 10617 10621 10625 10629 10633 10636 10639 10642 10645 10647 10650 10653 10658 10664 10671 10676 10679 10684 10690 10695 10697 10699 10700 10704 10710 10712 10713 10712 10712 10716 10719 10721 10723 10724 10725 10727 10728 10731 10734 10736 10737 10738 10738 10739 10739 10740 10741 10742 10743 10744 10745 10746 10747 10747 10747 10747 10746 10746 10746 10746 10746 10745 10745 10744 10744 10745 10745 10745 10745 10744 10742 10741 10740 10738 10737 10736
10576 10584 10586 10585 10587 10592 10598 10602 10604 10609 10613 10617 10621 10625 10628 10630 10632 10636 10640 10644 10646 10649 10653 10659 10667 10672 10676 10681 10687 10690 10691 10693 10695 10699 10705 10710 10712 10711 10711 10714 10717 10718 10719 10719 10719 10721 10724 10727 10729 10731 10732 10733 10734 10735 10735 10736 10736 10737 10738 10739 10740 10741 10742 10743 10743 10742 10742 10742 10742 10742 10741 10741 10741 10740 10740 10740 10741 10741 10740 10739 10738 10736 10735 10734 10733 10732
10570 10576 10575 10576 10581 10587 10593 10596 10600 10605 10609 10613 10617 10620 10622 10623 10627 10631 10635 10640 10642 10645 10649 10655 10663 10669 10674 10680 10684 10685 10687 10689 10692 10696 10702 10708 10714 10716 10713 10713 10715 10715 10714 10713 10714 10716 10719 10722 10724 10726 10728 10729 10730 10731 10731 10732 10732 10732 10733 10734 10735 10736 10737 10738 10738 10738 10738 10737 10737 10737 10737 10737 10737 10736 10735 10736 10736 10736 10736 10734 10732 10731 10730 10730 10729 10728
10562 10564 10564 10567 10573 10580 10586 10590 10594 10600 10604 10608 10611 10613 10614 10616 10621 10626 10631 10636 10638 10641 10645 10652 10660 10666 10671 10676 10679 10681 10682 10685 10688 10691 10696 10703 10712 10716 10714 10713 10711 10709 10707 10707 10709 10711 10714 10717 10719 10721 10723 10724 10726 10727 10727 10727 10727 10727 10728 10729 10730 10732 10733 10733 10733 10733 10733 10733 10732 10732 10733 10733 10733 10732 10732 10732 10732 10731 10730 10729 10727 10726 10725 10725 10724 10724
10554 10555 10557 10561 10567 10573 10580 10585 10589 10594 10598 10602 10605 10606 10606 10610 10616 10621 10627 10632 10634 10637 10642 10649 10656 10661 10666 10671 10674 10676 10677 10680 10682 10684 10688 10695 10701 10705 10708 10710 10705 10700 10700 10702 10704 10707 10710 10712 10714 10716 10718 10720 10721 10722 10722 10723 10723 10723 10723 10724 10726 10727 10728 10728 10728 10728 10729 10729 10728 10728 10729 10730 10729 10729 10728 10727 10727 10726 10724 10723 10722 10721 10719 10719 10719 10718
10547 10548 10550 10556 10561 10568 10575 10579 10584 10589 10593 10598 10599 10598 10600 10606 10612 10617 10623 10627 10630 10634 10640 10647 10653 10657 10662 10666 10669 10671 10673 10675 10676 10677 10682 10688 10693 10694 10699 10705 10701 10693 10693 10696 10700 10702 10705 10707 10709 10711 10713 10715 10716 10717 10718 10719 10719 10719 10719 10719 10721 10722 10722 10723 10723 10723 10724 10724 10724 10724 10725 10725 10725 10724 10724 10723 10722 10720 10719 10718 10717 10716 10714 10713 10713 10712
10542 10543 10545 10550 10556 10563 10571 10576 10579 10583 10588 10591 10590 10590 10596 10602 10606 10612 10618 10623 10626 10630 10638 10644 10649 10654 10658 10661 10664 10667 10669 10671 10671 10673 10677 10681 10685 10687 10693 10700 10698 10688 10686 10690 10694 10696 10699 10702 10704 10706 10708 10711 10712 10712 10713 10714 10715 10714 10714 10715 10715 10716 10716 10717 10718 10718 10719 10719 10719 10720 10720 10720 10720 10719 10719 10718 10717 10716 10714 10713 10713 10712 10711 10709 10708 10707
10534 10537 10540 10544 10551 10559 10566 10569 10571 10576 10581 10581 10580 10584 10592 10597 10601 10608 10615 10620 10623 10629 10637 10642 10646 10651 10654 10657 10660 10663 10666 10668 10668 10669 10671 10674 10677 10680 10687 10691 10688 10682 10681 10685 10687 10690 10694 10697 10699 10701 10704 10706 10707 10707 10708 10709 10710 10710 10710 10710 10710 10710 10711 10712 10713 10713 10713 10713 10714 10715 10715 10714 10714 10715 10714 10713 10712 10711 10710 10709 10708 10708 10707 10705 10704 10702
10526 10529 10532 10537 10546 10553 10556 10557 10562 10569 10571 10570 10574 10581 10587 10592 10598 10606 10613 10617 10621 10629 10635 10639 10643 10647 10650 10653 10655 10659 10662 10662 10662 10662 10664 10668 10671 10675 10679 10678 10675 10674 10677 10681 10683 10686 10690 10693 10695 10697 10699 10700 10701 10702 10703 10704 10705 10705 10705 10704 10705 10705 10706 10706 10707 10707 10707 10707 10708 10709 10709 10709 10709 10710 10709 10708 10707 10706 10705 10704 10703 10703 10702 10701 10699 10697
10520 10523 10527 10534 10542 10545 10545 10548 10554 10559 10560 10563 10571 10577 10582 10589 10596 10604 10610 10614 10620 10628 10632 10634 10639 10643 10646 10649 10652 10655 10655 10653 10652 10654 10658 10663 10666 10668 10668 10666 10666 10670 10673 10677 10680 10683 10687 10689 10690 10692 10694 10695 10695 10697 10698 10699 10700 10700 10700 10700 10700 10700 10701 10702 10702 10702 10702 10702 10703 10703 10703 10703 10704 10704 10704 10704 10703 10702 10700 10699 10698 10698 10697 10696 10694 10693
10516 10520 10526 10532 10537 10539 10541 10545 10550 10552 10555 10562 10569 10574 10581 10589 10595 10602 10608 10613 10620 10626 10626 10629 10634 10638 10641 10644 10646 10647 10646 10645 10647 10651 10653 10656 10659 10659 10657 10658 10663 10669 10672 10675 10679 10682 10684 10685 10686 10687 10689 10690 10691 10692 10693 10694 10695 10695 10695 10695 10695 10696 10696 10696 10696 10697 10698 10698 10697 10698 10698 10698 10699 10699 10699 10699 10699 10698 10696 10694 10693 10693 10692 10691 10689 10688
10513 10518 10524 10528 10532 10534 10538 10543 10546 10549 10556 10563 10568 10574 10581 10588 10595 10602 10607 10612 10619 10620 10618 10623 10630 10634 10637 10638 10639 10640 10639 10640 10643 10646 10647 10650 10653 10654 10655 10660 10665 10670 10673 10676 10679 10680 10681 10681 10681 10683 10684 10685 10685 10686 10687 10688 10689 10690 10690 10690 10690 10690 10690 10691 10691 10692 10692 10692 10692 10692 10692 10693 10693 10694 10694 10694 10694 10692 10691 10690 10689 10688 10687 10686 10685 10683
10510 10515 10520 10525 10528 10531 10536 10540 10544 10550 10557 10562 10567 10572 10579 10586 10593 10600 10604 10608 10612 10611 10612 10619 10626 10630 10632 10633 10634 10634 10634 10636 10639 10642 10643 10647 10651 10653 10657 10662 10666 10669 10671 10674 10676 10676 10676 10677 10677 10677 10678 10679 10679 10680 10682 10683 10684 10684 10684 10685 10685 10685 10685 10685 10686 10687 10687 10687 10687 10687 10687 10688 10688 10689 10689 10689 10688 10687 10686 10685 10684 10683 10682 10681 10680 10678
10507 10513 10518 10522 10525 10528 10533 10537 10540 10544 10549 10554 10559 10564 10572 10581 10588 10593 10597 10601 10603 10604 10608 10616 10622 10626 10627 10628 10628 10629 10630 10633 10636 10639 10641 10646 10650 10652 10655 10658 10661 10664 10667 10670 10671 10671 10672 10672 10672 10672 10673 10674 10675 10675 10677 10677 10678 10679 10679 10680 10680 10680 10681 10682 10682 10682 10682 10682 10682 10682 10683 10683 10684 10684 10684 10683 10683 10682 10681 10680 10679 10678 10677 10676 10675 10673
10502 10508 10513 10517 10519 10523 10527 10530 10532 10536 10542 10546 10550 10558 10569 10576 10580 10585 10589 10593 10596 10598 10604 10612 10619 10621 10621 10622 10623 10625 10627 10630 10633 10636 10639 10643 10647 10649 10651 10654 10657 10661 10663 10665 10666 10666 10668 10668 10668 10667 10668 10670 10671 10671 10672 10672 10673 10674 10675 10676 10677 10677 10678 10678 10678 10677 10677 10677 10677 10678 10678 10678 10678 10679 10679 10678 10677 10677 10676 10675 10674 10673 10672 10671 10669 10668
10499 10502 10506 10508 10512 10516 10519 10522 10526 10530 10536 10541 10548 10559 10566 10566 10570 10577 10583 10587 10591 10595 10602 10610 10615 10615 10615 10617 10620 10622 10625 10627 10630 10633 10636 10639 10641 10644 10649 10652 10654 10657 10658 10660 10661 10662 10662 10663 10663 10662 10664 10666 10667 10667 10667 10668 10669 10669 10670 10671 10672 10673 10673 10673 10673 10673 10672 10672 10672 10673 10673 10673 10673 10673 10673 10673 10672 10671 10670 10670 10669 10668 10667 10665 10664 10664
10493 10497 10500 10503 10506 10508 10511 10514 10518 10522 10529 10537 10547 10553 10552 10554 10565 10574 10578 10584 10589 10594 10601 10607 10609 10610 10611 10615 10618 10619 10621 10623 10625 10628 10631 10634 10636 10641 10649 10650 10649 10651 10653 10655 10656 10656 10657 10658 10658 10658 10659 10660 10662 10663 10663 10664 10664 10664 10664 10666 10668 10668 10668 10668 10668 10668 10667 10667 10668 10668 10668 10668 10668 10668 10668 10668 10667 10666 10665 10664 10663 10663 10662 10660 10660 10659
10487 10490 10494 10497 10498 10500 10503 10507 10511 10518 10527 10534 10539 10540 10542 10553 10566 10572 10576 10582 10586 10591 10598 10602 10605 10606 10609 10612 10613 10614 10616 10617 10620 10622 10625 10627 10629 10636 10643 10643 10641 10644 10649 10651 10651 10651 10653 10654 10654 10655 10655 10655 10656 10658 10659 10660 10659 10659 10660 10663 10663 10664 10664 10664 10664 10664 10664 10664 10664 10664 10663 10664 10664 10664 10663 10662 10661 10660 10659 10658 10658 10657 10656 10656 10655 10654
10482 10484 10488 10490 10491 10492 10497 10503 10511 10520 10526 10529 10533 10537 10543 10554 10562 10565 10571 10577 10581 10587 10593 10597 10601 10603 10605 10606 10606 10608 10611 10612 10616 10618 10619 10622 10625 10630 10636 10637 10637 10641 10644 10646 10648 10648 10649 10650 10651 10652 10651 10651 10652 10653 10655 10655 10655 10655 10657 10659 10659 10660 10660 10660 10660 10660 10660 10660 10660 10659 10659 10659 10659 10658 10658 10657 10656 10655 10654 10653 10653 10652 10652 10651 10650 10649
10477 10479 10482 10484 10484 10488 10497 10507 10514 10519 10522 10526 10532 10538 10544 10551 10557 10561 10567 10572 10577 10583 10587 10592 10596 10597 10598 10599 10600 10603 10606 10609 10612 10615 10617 10620 10622 10626 10630 10632 10634 10637 10640 10643 10645 10645 10646 10647 10648 10648 10648 10648 10649 10650 10651 10651 10651 10652 10654 10656 10656 10656 10656 10656 10656 10656 10657 10656 10655 10655 10654 10654 10654 10653 10652 10651 10650 10649 10649 10648 10648 10647 10646 10645 10644 10643
10472 10474 10478 10480 10483 10491 10501 10505 10507 10510 10515 10521 10528 10532 10537 10544 10551 10557 10565 10571 10576 10580 10583 10588 10591 10591 10592 10594 10596 10599 10603 10606 10609 10612 10615 10617 10619 10622 10624 10627 10630 10632 10635 10638 10641 10643 10643 10644 10645 10646 10646 10646 10647 10647 10647 10647 10647 10649 10651 10652 10651 10651 10651 10652 10652 10652 10652 10651 10650 10650 10650 10649 10649 10648 10647 10646 10645 10644 10644 10643 10642 10642 10641 10640 10638 10637
10466 10470 10474 10478 10483 10489 10493 10494 10496 10501 10507 10513 10518 10522 10527 10535 10543 10552 10561 10566 10570 10574 10578 10583 10585 10586 10588 10590 10592 10596 10600 10604 10607 10609 10612 10614 10616 10618 10620 10623 10628 10629 10630 10633 10636 10638 10639 10640 10643 10644 10643 10643 10644 10644 10644 10643 10644 10646 10647 10647 10646 10646 10647 10647 10648 10647 10647 10646 10646 10645 10645 10644 10643 10643 10642 10641 10640 10639 10639 10638 10637 10636 10635 10634 10632 10631
10462 10465 10470 10475 10479 10482 10484 10487 10490 10494 10499 10505 10512 10518 10524 10533 10541 10547 10552 10555 10559 10566 10572 10576 10579 10581 10584 10586 10589 10593 10597 10600 10603 10606 10608 10610 10613 10615 10616 10619 10623 10624 10625 10628 10631 10633 10635 10637 10638 10639 10639 10639 10640 10640 10639 10640 10641 10641 10642 10642 10642 10642 10643 10643 10643 10642 10642 10641 10641 10640 10640 10639 10638 10638 10637 10636 10635 10634 10633 10632 10631 10630 10629 10628 10627 10625
10457 10461 10465 10470 10473 10476 10479 10482 10483 10488 10496 10504 10512 10518 10524 10530 10534 10538 10543 10548 10554 10561 10566 10570 10573 10576 10580 10583 10586 10589 10593 10596 10599 10602 10604 10607 10609 10611 10613 10615 10617 10619 10621 10623 10626 10629 10631 10632 10633 10634 10634 10634 10635 10635 10634 10635 10636 10637 10637 10637 10637 10638 10639 10639 10638 10637 10637 10637 10636 10635 10635 10634 10633 10633 10632 10631 10630 10629 10628 10627 10626 10625 10624 10623 10621 10620
10451 10455 10460 10465 10468 10472 10477 10481 10485 10491 10499 10505 10510 10516 10520 10524 10529 10535 10540 10547 10554 10559 10562 10566 10570 10573 10577 10580 10583 10586 10589 10592 10595 10598 10601 10603 10605 10607 10609 10611 10613 10615 10617 10619 10621 10624 10626 10627 10628 10629 10629 10629 10630 10630 10630 10630 10631 10632 10633 10633 10633 10634 10634 10634 10633 10633 10632 10632 10631 10630 10630 10629 10628 10628 10627 10626 10625 10624 10623 10622 10621 10620 10619 10618 10617 10616
10447 10451 10455 10460 10463 10467 10473 10477 10481 10487 10493 10499 10505 10511 10516 10521 10527 10532 10538 10545 10551 10555 10558 10562 10566 10569 10572 10575 10578 10582 10585 10587 10590 10593 10596 10599 10601 10603 10605 10607 10609 10611 10614 10615 10617 10619 10621 10622 10624 10624 10624 10623 10625 10626 10626 10626 10627 10628 10628 10628 10629 10629 10629 10629 10628 10628 10628 10627 10626 10625 10625 10624 10623 10623 10622 10621 10620 10619 10618 10617 10616 10615 10614 10613 10612 10611
10444 10448 10453 10456 10458 10462 10467 10471 10474 10479 10486 10492 10499 10505 10511 10517 10522 10529 10536 10542 10547 10551 10555 10558 10561 10564 10567 10570 10573 10576 10579 10582 10585 10588 10591 10594 10596 10599 10602 10604 10607 10609 10611 10611 10613 10614 10616 10618 10619 10619 10618 10619 10620 10621 10622 10622 10622 10623 10624 10624 10625 10625 10624 10624 10624 10624 10623 10622 10621 10621 10620 10619 10618 10618 10617 10616 10615 10614 10613 10612 10611 10610 10609 10608 10607 10606
10441 10444 10447 10451 10455 10459 10464 10467 10470 10476 10482 10488 10494 10499 10505 10511 10517 10525 10531 10536 10541 10546 10550 10554 10558 10561 10563 10566 10569 10571 10575 10578 10581 10584 10588 10590 10593 10596 10598 10601 10603 10605 10607 10607 10608 10609 10611 10613 10614 10613 10613 10614 10616 10617 10617 10618 10618 10619 10619 10620 10620 10620 10619 10619 10619 10619 10618 10617 10616 10615 10615 10614 10613 10613 10612 10611 10610 10609 10608 10607 10606 10605 10604 10603 10602 10601
10435 10437 10440 10446 10451 10456 10460 10463 10467 10472 10478 10484 10489 10494 10500 10506 10512 10518 10524 10529 10535 10540 10545 10550 10555 10557 10559 10563 10565 10568 10572 10575 10578 10581 10584 10587 10589 10592 10594 10597 10599 10601 10602 10603 10604 10606 10607 10607 10608 10607 10608 10609 10611 10612 10613 10612 10613 10613 10614 10615 10615 10614 10614 10615 10615 10614 10613 10612 10611 10610 10609 10609 10608 10607 10606 10605 10604 10603 10603 10602 10601 10600 10599 10598 10597 10596
10428 10431 10436 10442 10447 10451 10455 10459 10463 10468 10473 10479 10484 10489 10495 10500 10506 10512 10518 10524 10530 10536 10541 10546 10550 10553 10556 10558 10561 10564 10568 10571 10574 10577 10579 10581 10584 10587 10589 10592 10594 10596 10598 10598 10600 10601 10601 10601 10602 10602 10603 10604 10606 10607 10607 10606 10606 10608 10609 10609 10609 10609 10609 10610 10610 10609 10608 10606 10605 10605 10604 10603 10603 10602 10601 10600 10599 10598 10597 10597 10596 10595 10594 10592 10591 10590
10422 10426 10432 10437 10442 10446 10450 10454 10459 10463 10468 10473 10478 10484 10489 10495 10502 10508 10514 10520 10526 10531 10536 10540 10544 10548 10550 10553 10556 10560 10563 10565 10568 10570 10572 10575 10577 10581 10584 10587 10589 10592 10593 10593 10594 10595 10595 10595 10596 10597 10599 10600 10602 10602 10600 10598 10600 10602 10603 10604 10603 10603 10604 10604 10604 10603 10602 10601 10600 10599 10599 10598 10597 10596 10595 10595 10594 10593 10592 10591 10590 10589 10588 10587 10585 10584
10417 10422 10428 10433 10437 10441 10446 10450 10453 10458 10464 10470 10475 10480 10486 10492 10499 10505 10511 10516 10521 10526 10531 10534 10537 10541 10544 10548 10551 10554 10556 10559 10561 10563 10565 10568 10571 10575 10578 10582 10586 10588 10588 10587 10588 10589 10590 10590 10591 10593 10594 10596 10598 10597 10593 10591 10594 10597 10598 10598 10598 10598 10598 10598 10598 10597 10596 10595 10594 10594 10593 10592 10592 10591 10590 10589 10589 10588 10587 10586 10584 10583 10582 10580 10579 10577
10412 10417 10422 10427 10431 10436 10441 10445 10450 10456 10462 10468 10474 10479 10484 10490 10496 10501 10507 10512 10517 10522 10526 10529 10532 10536 10540 10543 10545 10548 10550 10552 10554 10557 10560 10563 10567 10571 10574 10578 10580 10581 10581 10581 10582 10583 10584 10585 10586 10588 10591 10592 10593 10590 10587 10587 10590 10592 10593 10593 10592 10592 10592 10592 10592 10591 10590 10590 10589 10588 10587 10587 10586 10585 10584 10584 10583 10582 10581 10580 10579 10577 10576 10574 10573 10571
10409 10413 10417 10421 10425 10430 10436 10441 10447 10454 10460 10465 10471 10477 10482 10487 10492 10498 10503 10509 10514 10518 10522 10525 10529 10532 10535 10538 10541 10543 10545 10548 10551 10553 10556 10559 10563 10566 10569 10572 10573 10574 10574 10574 10575 10576 10577 10579 10581 10584 10586 10587 10586 10584 10582 10583 10584 10586 10587 10586 10585 10585 10585 10585 10586 10585 10585 10584 10583 10582 10582 10581 10580 10579 10579 10579 10578 10577 10576 10574 10573 10571 10570 10568 10567 10565
10406 10410 10413 10416 10421 10427 10433 10439 10446 10452 10456 10462 10468 10474 10479 10484 10489 10494 10499 10504 10510 10514 10518 10521 10524 10527 10531 10534 10537 10539 10541 10544 10546 10549 10552 10556 10558 10561 10562 10564 10566 10567 10567 10566 10567 10569 10572 10574 10577 10578 10580 10580 10580 10579 10579 10578 10578 10579 10579 10578 10578 10578 10579 10579 10580 10579 10579 10578 10577 10577 10576 10575 10574 10573 10573 10573 10573 10571 10570 10568 10567 10565 10564 10562 10561 10559
10403 10407 10410 10414 10420 10426 10431 10436 10442 10447 10453 10460 10466 10471 10476 10480 10484 10489 10493 10498 10504 10508 10512 10515 10518 10522 10525 10528 10531 10534 10537 10539 10542 10545 10548 10550 10552 10554 10555 10557 10559 10559 10558 10559 10561 10564 10567 10569 10571 10572 10573 10574 10574 10574 10574 10573 10571 10571 10570 10570 10570 10571 10572 10573 10573 10573 10572 10572 10571 10571 10570 10569 10568 10568 10568 10568 10567 10565 10564 10562 10561 10559 10558 10556 10555 10553
10401 10405 10409 10413 10417 10423 10427 10433 10439 10445 10452 10458 10463 10466 10471 10475 10479 10484 10488 10493 10498 10502 10506 10509 10512 10516 10520 10523 10526 10529 10532 10535 10538 10540 10542 10543 10545 10547 10549 10551 10551 10551 10552 10554 10557 10560 10562 10564 10565 10566 10567 10567 10567 10568 10568 10566 10563 10563 10563 10564 10564 10565 10566 10566 10566 10566 10566 10566 10565 10564 10563 10563 10563 10563 10563 10562 10561 10559 10558 10556 10555 10553 10552 10550 10548 10546
10399 10404 10407 10411 10416 10421 10426 10433 10440 10446 10451 10455 10458 10462 10467 10471 10475 10480 10484 10489 10493 10497 10500 10504 10507 10511 10514 10517 10520 10523 10527 10530 10532 10533 10535 10538 10539 10541 10543 10545 10545 10546 10548 10550 10552 10554 10556 10558 10559 10559 10559 10560 10560 10560 10560 10557 10556 10556 10557 10558 10559 10559 10559 10560 10560 10560 10560 10559 10558 10557 10557 10557 10558 10558 10557 10556 10554 10553 10551 10550 10549 10547 10545 10544 10542 10540
10397 10401 10405 10411 10416 10421 10425 10431 10438 10442 10446 10450 10454 10459 10462 10466 10471 10476 10482 10486 10489 10491 10495 10498 10501 10505 10508 10511 10514 10518 10521 10523 10524 10527 10530 10533 10534 10537 10539 10539 10540 10541 10542 10544 10545 10548 10550 10552 10553 10553 10552 10552 10552 10552 10551 10549 10549 10550 10551 10552 10553 10553 10553 10554 10554 10553 10553 10552 10552 10551 10552 10553 10553 10552 10551 10549 10548 10547 10545 10544 10543 10541 10539 10537 10535 10533
10395 10400 10404 10409 10414 10419 10424 10429 10433 10437 10441 10444 10449 10453 10456 10461 10467 10474 10478 10480 10482 10485 10489 10492 10495 10499 10502 10505 10509 10512 10514 10516 10518 10522 10526 10529 10531 10533 10533 10533 10534 10535 10537 10538 10540 10541 10543 10546 10547 10547 10547 10546 10544 10543 10543 10542 10542 10544 10545 10547 10547 10547 10547 10547 10547 10547 10546 10546 10546 10546 10547 10547 10547 10546 10544 10543 10542 10540 10539 10538 10536 10534 10532 10530 10529 10527
10394 10398 10402 10406 10411 10415 10420 10424 10428 10433 10436 10439 10444 10448 10453 10459 10466 10471 10472 10474 10476 10480 10484 10488 10491 10494 10497 10501 10504 10507 10509 10512 10515 10519 10523 10524 10525 10526 10527 10527 10528 10530 10532 10533 10533 10534 10537 10540 10541 10542 10541 10538 10537 10537 10537 10537 10537 10538 10539 10540 10540 10540 10541 10541 10541 10541 10541 10541 10541 10542 10542 10541 10541 10539 10538 10537 10536 10534 10533 10531 10530 10528 10526 10524 10522 10520
10393 10396 10400 10404 10408 10412 10417 10422 10427 10432 10434 10437 10441 10447 10452 10458 10463 10465 10467 10470 10473 10476 10480 10484 10487 10490 10494 10497 10499 10502 10504 10508 10511 10515 10517 10518 10519 10520 10521 10522 10523 10525 10526 10527 10527 10529 10532 10534 10535 10534 10533 10532 10533 10533 10532 10531 10531 10531 10533 10533 10533 10533 10534 10535 10535 10535 10536 10536 10536 10536 10536 10536 10535 10533 10532 10531 10529 10528 10526 10525 10523 10521 10519 10517 10515 10513
10392 10397 10400 10404 10408 10412 10417 10421 10425 10427 10429 10433 10438 10443 10449 10453 10457 10460 10463 10466 10469 10473 10477 10481 10483 10486 10489 10492 10494 10497 10500 10504 10507 10510 10511 10512 10513 10514 10516 10517 10518 10520 10521 10521 10522 10524 10526 10528 10529 10527 10526 10528 10530 10528 10526 10526 10525 10526 10526 10525 10525 10527 10529 10529 10529 10530 10531 10531 10531 10531 10531 10530 10528 10527 10526 10524 10523 10521 10520 10518 10517 10515 10513 10511 10508 10506
10391 10395 10399 10402 10406 10409 10413 10417 10419 10422 10426 10431 10436 10441 10446 10451 10454 10457 10460 10463 10466 10469 10473 10476 10479 10481 10484 10487 10489 10493 10496 10500 10503 10504 10505 10506 10508 10510 10511 10512 10513 10513 10514 10515 10517 10519 10520 10522 10523 10521 10520 10523 10525 10524 10522 10521 10520 10520 10519 10517 10518 10522 10523 10523 10524 10525 10525 10525 10525 10525 10525 10523 10522 10521 10519 10518 10516 10515 10513 10512 10510 10508 10506 10504 10501 10499
10389 10393 10397 10400 10404 10407 10410 10413 10416 10420 10424 10430 10434 10439 10444 10448 10451 10454 10457 10460 10463 10465 10468 10471 10474 10477 10479 10482 10486 10489 10493 10495 10498 10499 10500 10501 10503 10505 10506 10506 10507 10507 10508 10509 10511 10513 10514 10515 10516 10516 10516 10517 10518 10518 10517 10516 10515 10514 10514 10513 10514 10516 10518 10518 10519 10519 10520 10520 10520 10519 10518 10517 10516 10514 10513 10511 10510 10508 10507 10506 10504 10501 10499 10497 10494 10492
10388 10391 10396 10399 10403 10406 10409 10411 10414 10418 10422 10427 10432 10436 10440 10444 10446 10449 10452 10455 10458 10461 10464 10467 10469 10472 10476 10478 10481 10485 10488 10490 10492 10493 10494 10496 10497 10499 10500 10501 10501 10501 10502 10504 10505 10506 10507 10508 10510 10511 10511 10511 10511 10511 10512 10511 10510 10510 10511 10511 10511 10512 10512 10513 10514 10514 10514 10514 10513 10513 10512 10510 10509 10508 10506 10505 10504 10502 10501 10499 10497 10495 10492 10490 10487 10484
10386 10390 10393 10397 10400 10404 10406 10409 10412 10416 10421 10426 10429 10433 10436 10439 10442 10444 10447 10450 10453 10456 10459 10462 10464 10468 10470 10473 10477 10481 10483 10484 10486 10487 10488 10490 10492 10493 10494 10494 10494 10495 10496 10498 10498 10500 10501 10502 10503 10504 10505 10504 10504 10505 10506 10506 10506 10506 10506 10506 10507 10507 10508 10508 10508 10508 10508 10508 10507 10506 10505 10504 10503 10502 10500 10499 10498 10496 10494 10492 10490 10488 10485 10482 10480 10477
10385 10388 10391 10394 10398 10401 10403 10406 10411 10415 10420 10423 10427 10430 10433 10435 10438 10441 10444 10447 10449 10452 10455 10457 10459 10462 10465 10469 10472 10475 10477 10478 10480 10481 10482 10484 10486 10486 10487 10487 10488 10489 10490 10491 10492 10493 10495 10496 10497 10497 10498 10498 10499 10499 10500 10500 10500 10501 10501 10502 10502 10503 10503 10503 10503 10502 10502 10501 10500 10499 10499 10498 10497 10496 10494 10493 10491 10489 10487 10485 10483 10481 10478 10475 10472 10470
10384 10387 10390 10393 10396 10399 10403 10407 10411 10415 10418 10421 10424 10427 10429 10432 10435 10437 10439 10442 10444 10447 10450 10452 10455 10458 10461 10464 10466 10469 10471 10472 10473 10474 10476 10477 10479 10479 10480 10481 10481 10483 10483 10484 10486 10487 10488 10489 10490 10491 10491 10492 10493 10493 10493 10494 10495 10495 10496 10497 10498 10498 10498 10498 10497 10496 10496 10495 10494 10493 10493 10492 10491 10490 10488 10486 10484 10482 10480 10478 10476 10474 10471 10468 10465 10463
10382 10385 10388 10391 10394 10398 10402 10405 10408 10411 10414 10417 10420 10422 10424 10427 10429 10431 10434 10436 10439 10442 10445 10447 10450 10453 10455 10457 10460 10463 10464 10465 10466 10467 10468 10470 10472 10473 10474 10474 10475 10476 10476 10477 10479 10481 10482 10483 10484 10485 10486 10486 10487 10487 10487 10488 10489 10490 10491 10492 10492 10492 10492 10491 10491 10490 10489 10488 10488 10487 10487 10487 10485 10484 10482 10480 10478 10476 10474 10472 10469 10467 10464 10462 10459 10456